| time (UTC) | temp C | wind direction | speed KPH | gust KPH | rain 1hr cm | rain 24hr cm | rain mn cm | humidity % | barometer mb |
| 20260503214521 | 16 | 11 | 6.4 | 20.9 | 0.00 | 0.00 | 0.00 | 42 | 1010.8 |
| 20260503213027 | 16 | 241 | 8.0 | 20.9 | 0.00 | 0.00 | 0.00 | 42 | 1011.0 |
| 20260503211523 | 16 | 243 | 4.8 | 19.3 | 0.00 | 0.00 | 0.00 | 40 | 1011.0 |
| 20260503210022 | 16 | 255 | 11.3 | 24.1 | 0.00 | 0.00 | 0.00 | 37 | 1011.0 |
| 20260503204531 | 17 | 9 | 6.4 | 20.9 | 0.00 | 0.00 | 0.00 | 1011.0 | |
| 20260503203025 | 17 | 246 | 6.4 | 20.9 | 0.00 | 0.00 | 0.00 | 38 | 1011.3 |
| 20260503201526 | 17 | 193 | 8.0 | 25.7 | 0.00 | 0.00 | 0.00 | 37 | 1011.3 |
| 20260503200026 | 17 | 253 | 6.4 | 17.7 | 0.00 | 0.00 | 0.00 | 36 | 1011.6 |
| 20260503194528 | 17 | 230 | 8.0 | 22.5 | 0.00 | 0.00 | 0.00 | 36 | 1011.8 |
| 20260503193025 | 17 | 323 | 9.7 | 25.7 | 0.00 | 0.00 | 0.00 | 1011.9 | |
| 20260503191527 | 17 | 194 | 6.4 | 22.5 | 0.00 | 0.00 | 0.00 | 40 | 1012.0 |
| 20260503190027 | 17 | 341 | 9.7 | 30.6 | 0.00 | 0.00 | 0.00 | 38 | 1012.2 |
| 20260503184530 | 17 | 244 | 6.4 | 25.7 | 0.00 | 0.00 | 0.00 | 36 | 1012.5 |
| 20260503183040 | 17 | 300 | 6.4 | 24.1 | 0.00 | 0.00 | 0.00 | 1012.6 | |
| 20260503181508 | 16 | 203 | 8.0 | 27.4 | 0.00 | 0.00 | 0.00 | 36 | 1012.9 |
| 20260503180021 | 16 | 246 | 11.3 | 25.7 | 0.00 | 0.00 | 0.00 | 37 | 1013.2 |
| 20260503174519 | 16 | 263 | 8.0 | 29.0 | 0.00 | 0.00 | 0.00 | 1013.3 | |
| 20260503173013 | 17 | 265 | 4.8 | 29.0 | 0.00 | 0.00 | 0.00 | 40 | 1013.5 |
| 20260503171517 | 16 | 142 | 3.2 | 22.5 | 0.00 | 0.00 | 0.00 | 41 | 1013.7 |
| 20260503081539 | 0 | 352 | 0.0 | 0.0 | 0.00 | 0.00 | 0.00 | 83 | 1016.1 |
| 20260503071543 | 0 | 352 | 0.0 | 3.2 | 0.00 | 0.00 | 0.00 | 85 | 1016.2 |
| 20260503054530 | 0 | 352 | 0.0 | 0.0 | 0.00 | 0.00 | 0.00 | 83 | 1016.7 |
| 20260503053020 | 0 | 352 | 0.0 | 0.0 | 0.00 | 0.00 | 0.00 | 82 | 1016.8 |
| 20260503051529 | 0 | 352 | 0.0 | 0.0 | 0.00 | 0.00 | 0.00 | 81 | 1016.8 |
| 20260503050022 | 0 | 352 | 0.0 | 0.0 | 0.00 | 0.00 | 0.00 | 81 | 1016.8 |
| 20260503044526 | 1 | 352 | 0.0 | 0.0 | 0.00 | 0.00 | 0.00 | 80 | 1017.0 |
| 20260503043025 | 1 | 352 | 0.0 | 0.0 | 0.00 | 0.00 | 0.00 | 78 | 1016.9 |
| 20260503041528 | 1 | 352 | 0.0 | 0.0 | 0.00 | 0.00 | 0.00 | 78 | 1017.0 |
| 20260503040024 | 2 | 352 | 0.0 | 0.0 | 0.00 | 0.00 | 0.00 | 77 | 1017.0 |
| 20260503034526 | 2 | 352 | 0.0 | 0.0 | 0.00 | 0.00 | 0.00 | 77 | 1017.0 |
| 20260503033025 | 2 | 352 | 0.0 | 0.0 | 0.00 | 0.00 | 0.00 | 75 | 1017.1 |
| 20260503031531 | 2 | 352 | 0.0 | 0.0 | 0.00 | 0.00 | 0.00 | 73 | 1017.2 |
| 20260503030034 | 3 | 352 | 0.0 | 0.0 | 0.00 | 0.00 | 0.00 | 71 | 1017.2 |
| 20260503024508 | 4 | 352 | 0.0 | 0.0 | 0.00 | 0.00 | 0.00 | 68 | 1017.2 |
| 20260503023010 | 4 | 352 | 0.0 | 0.0 | 0.00 | 0.00 | 0.00 | 67 | 1017.3 |
| 20260503021511 | 5 | 352 | 0.0 | 0.0 | 0.00 | 0.00 | 0.00 | 66 | 1017.2 |
| 20260503020013 | 5 | 352 | 0.0 | 0.0 | 0.00 | 0.00 | 0.00 | 66 | 1017.0 |
| 20260503014513 | 5 | 352 | 0.0 | 0.0 | 0.00 | 0.00 | 0.00 | 61 | 1017.0 |
| 20260503013027 | 6 | 352 | 0.0 | 0.0 | 0.00 | 0.00 | 0.00 | 61 | 1016.9 |
| 20260503011513 | 6 | 352 | 0.0 | 0.0 | 0.00 | 0.00 | 0.00 | 57 | 1016.8 |
| 20260503010017 | 6 | 352 | 0.0 | 0.0 | 0.00 | 0.00 | 0.00 | 56 | 1016.9 |
| 20260503004518 | 7 | 352 | 0.0 | 0.0 | 0.00 | 0.00 | 0.00 | 54 | 1016.8 |
| 20260503003022 | 7 | 352 | 0.0 | 0.0 | 0.00 | 0.00 | 0.00 | 51 | 1016.8 |
| 20260503001520 | 7 | 352 | 0.0 | 3.2 | 0.00 | 0.00 | 0.00 | 47 | 1016.7 |
| 20260503000022 | 8 | 321 | 0.0 | 3.2 | 0.00 | 0.00 | 0.00 | 47 | 1016.6 |
| 20260502234530 | 8 | 9 | 1.6 | 6.4 | 0.00 | 0.00 | 0.00 | 46 | 1016.6 |
| 20260502233023 | 8 | 287 | 4.8 | 6.4 | 0.00 | 0.00 | 0.00 | 44 | 1016.6 |
| 20260502231528 | 8 | 343 | 1.6 | 8.0 | 0.00 | 0.00 | 0.00 | 46 | 1016.7 |
| 20260502230024 | 8 | 25 | 4.8 | 12.9 | 0.00 | 0.00 | 0.00 | 44 | 1016.7 |
| 20260502224523 | 8 | 325 | 3.2 | 9.7 | 0.00 | 0.00 | 0.00 | 43 | 1016.7 |
| 20260502223025 | 8 | 234 | 4.8 | 11.3 | 0.00 | 0.03 | 0.00 | 41 | 1016.6 |
| 20260502221525 | 8 | 304 | 4.8 | 8.0 | 0.00 | 0.03 | 0.00 | 45 | 1016.7 |
| 20260502220026 | 8 | 11 | 4.8 | 14.5 | 0.00 | 0.03 | 0.00 | 43 | 1016.8 |